AirNav   Air Wisconsin pilot careers
 
 427 users online  

KTNT Dade-Collier Training and Transition Airport
Miami, Florida, USA

GOING TO MIAMI?


FAA INFORMATION EFFECTIVE 19 JULY 2018

Location

FAA Identifier: TNT
Lat/Long: 25-51-42.5000N / 080-53-49.2000W
25-51.708333N / 080-53.820000W
25.8618056 / -80.8970000
(estimated)
Elevation: 12.7 ft. / 3.9 m (surveyed)
Variation: 05W (2005)
From city: 36 miles W of MIAMI, FL
Time zone: UTC -4 (UTC -5 during Standard Time)
Zip code: 34141

Airport Operations

Airport use: Open to the public, ARPT CLSD TO PUBLIC EXCP BY ARRANGEMENT WITH MIAMI-DADE AVIATION DEPT MIAMI 305-869-1660.
Control tower: no
ARTCC: MIAMI CENTER
FSS: MIAMI FLIGHT SERVICE STATION
NOTAMs facility: MIA (NOTAM-D service available)
Attendance: CONTINUOUS
Wind indicator: lighted
Segmented circle: yes
Beacon: white-green (lighted land airport)
Operates sunset to sunrise.
Landing fee: yes

Airport Communications

CTAF/UNICOM: 123.0
WX AWOS-3: 119.075 ((239) 695-9198)
MIAMI APPROACH: 128.6
MIAMI DEPARTURE: 128.6
  • APCH/DEP SVC PRVDD BY MIAMI ATCT ON FREQS 128.6/306.975

Nearby radio navigation aids

VOR radial/distance  VOR name  Freq  Var
DHPr281/29.8DOLPHIN VORTAC113.9004W

 
NDB name  Hdg/Dist  Freq  Var  ID
MONRY095/6.222705WTN - -.

Airport Services

Airframe service: NONE
Powerplant service: NONE
Bottled oxygen: NONE
Bulk oxygen: NONE

Runway Information

Runway 9/27

Dimensions: 10499 x 150 ft. / 3200 x 46 m
Surface: asphalt/porous friction courses, in good condition
Weight bearing capacity: 
Single wheel: 130.0
Double wheel: 200.0
Double tandem: 400.0
Dual double tandem: 800.0
RUNWAY 9  RUNWAY 27
Latitude: 25-51.708232N25-51.707022N
Longitude: 080-54.777252W080-52.861753W
Elevation: 12.6 ft.12.4 ft.
Traffic pattern: leftright
Runway heading: 095 magnetic, 090 true275 magnetic, 270 true
Markings: precision, in fair conditionprecision, in fair condition
Touchdown point: yes, no lightsyes, no lights
Instrument approach: ILS
Obstructions: 4 ft. brush, 200 ft. from runway, 295 ft. right of centerline
+4' BRUSH, 13' FM RY END, 295' R OF CNTRLN.
4 ft. brush, 200 ft. from runway, 327 ft. right of centerline
+4' BRUSH, 56' FM RY END, 327' R OF CNTRLN.

Airport Ownership and Management from official FAA records

Ownership: Publicly-owned
Owner: MIAMI-DADE COUNTY
MIAMI-DADE AVIATION DEPARTMENT, P.O. BOX 025504
MIAMI, FL 33102-5504
Phone (305) 876-0464
Manager: NELSON MEJIAS
14201 NORTHWEST LEJEUNE ROAD
OPA-LOCKA, FL 33054
Phone (305) 869-1662
AIRPORT PHYSICAL ADDRESS: 54757 EAST TAMIAMI TRAIL, OCHOPPI, FL 34141 239-695-3300, FAX: 305-876-0565

Airport Operational Statistics

Aircraft operations: avg 40/day *
100% transient general aviation
* for 12-month period ending 26 October 2016

Additional Remarks

A100 ACR TRNG OPNS ONLY.
THREE 8IN WELLS FLUSH MTD BTN RWY AND TWY.
FEE FOR USE FOR ACFT OVER 12500 LBS.
MAEW IN BUFFER ISLAND BTN RY 09/27 & TWY.
WILDLIFE OCCASIONALLY ON & INVOF ARPT.
BE ALERT TO LOW FLYING NATIONAL PARK SVC ACFT ALL QUADRANTS.

Instrument Procedures

NOTE: All procedures below are presented as PDF files. If you need a reader for these files, you should download the free Adobe Reader.

NOT FOR NAVIGATION. Please procure official charts for flight.
FAA instrument procedures published for use from 19 July 2018 at 0901Z to 16 August 2018 at 0900Z.

 
IAPs - Instrument Approach Procedures
RNAV (GPS) RWY 09 **CHANGED**   download (222KB)

Other nearby airports with instrument procedures:

KTMB - Miami Executive Airport (28 nm SE)
X51 - Miami Homestead General Aviation Airport (29 nm SE)
KMIA - Miami International Airport (33 nm E)
KOPF - Miami-Opa Locka Executive Airport (34 nm E)
KHST - Homestead Air Reserve Base (36 nm SE)
 
Loc | Ops | Rwys | IFR | FBO | Links
Com | Nav | Svcs | Stats | Notes

Reliance Aviation
AirBoss

 
Area around KTNT (Dade-Collier Training and Transition Airport)
 
Road maps at: MapQuest Bing Google
 
Aerial photo
WARNING: Photo may not be current or correct
Aerial photo of KTNT (Dade-Collier Training and Transition Airport)
Do you have a better or more recent aerial photo of Dade-Collier Training and Transition Airport that you would like to share? If so, please send us your photo.

 
Sectional chart

 
Airport distance calculator
Flying to Dade-Collier Training and Transition Airport? Find the distance to fly.

From to KTNT

Sunrise and sunset
Times for 14-Aug-2018
 Local
(UTC-4)
 Zulu
(UTC)
Morning civil twilight06:3310:33
Sunrise06:5710:57
Sunset20:0024:00
Evening civil twilight20:2400:24

Current date and time
Zulu (UTC)  14-Aug-2018 07:40:25
Local (UTC-4)  14-Aug-2018 03:40:25
 
METAR
KTMB 
28nm SE 
140653Z AUTO 00000KT 10SM CLR 26/23 A3005 RMK AO2 SLP174 T02560233
KMIA 
32nm E 
140653Z 12003KT 10SM FEW025 27/25 A3005 RMK AO2 SLP176 T02720250 $
KOPF 
33nm E 
140653Z AUTO 00000KT 10SM CLR 27/24 A3006 RMK AO2 SLP179 T02720244
KHWO 
37nm E 
140653Z AUTO 00000KT 10SM CLR 27/25 A3007 RMK AO2 SLP181 T02670250
KHST 
37nm SE 
140656Z AUTO 00000KT 10SM CLR 27/24 A3004 RMK AO2 SLP176 T02670237 FZRANO VISNO RWY24 $
KFLL 
42nm E 
140653Z 00000KT 10SM FEW026 26/25 A3005 RMK AO2 SLP175 T02610250
KFXE 
43nm NE 
140653Z 00000KT 10SM CLR 27/24 A3006 RMK AO2 SLP180 T02670239 $
KIMM 
44nm NW 
140715Z AUTO 00000KT 10SM 23/22 A3005 RMK A01
KPMP 
48nm NE 
140653Z AUTO 00000KT 10SM CLR 27/23 A3006 RMK AO2 SLP179 T02670233 $
KAPF 
50nm W 
140653Z AUTO 00000KT 10SM CLR 26/23 A3005 RMK AO2 LTG DSNT NW SLP173 T02560228
TAF
KTMB 
28nm SE 
140543Z 1406/1506 VRB03KT P6SM SCT030 SCT200 FM141200 12006KT P6SM VCSH SCT025 BKN050 BKN250 FM141800 12010KT P6SM SCT030 SCT050 BKN250 FM150100 12007KT P6SM SCT030 BKN250
KMIA 
32nm E 
140543Z 1406/1512 VRB04KT P6SM SCT030 SCT200 FM141200 12008KT P6SM VCSH SCT025 BKN050 BKN250 FM141800 13011KT P6SM SCT030 SCT050 BKN250 FM150200 10006KT P6SM FEW050 SCT250
KOPF 
33nm E 
140543Z 1406/1506 VRB03KT P6SM SCT030 SCT200 FM141200 13008KT P6SM VCSH SCT025 BKN050 BKN250 FM141800 11011KT P6SM SCT030 SCT050 BKN250 FM150100 13007KT P6SM SCT030 BKN250
NOTAMs
Click for the latest NOTAMs
NOTAMs are issued by the DoD/FAA and will open in a separate window not controlled by AirNav.

 

 
 

Would you like to see your business listed on this page?

 If your business provides an interesting product or service to pilots, flight crews, aircraft, or users of the Dade-Collier Training and Transition Airport, you should consider listing it here.  To start the listing process, click on the button below
 
Add a business
 

Other Pages about Dade-Collier Training and Transition Airport

Update a link
 
Copyright © AirNav, LLC. All rights reserved. Privacy Policy  Contact